Location: Unspecified
(0.0000°N, 0.0000°E)
Time: 21:01:45
(UTC+00:00)

Explorer 7 - All Passes

Search period start: 26 April 2018 00:00
Search period end: 06 May 2018 00:00
Orbit: 485 x 682 km, 50.3° (Epoch: 26 April)

Date Brightness Start Highest point End Pass type
(mag) Time Alt. Az. Time Alt. Az. Time Alt. Az.
26 Apr - 09:24:01 10° NW 09:27:46 72° SW 09:31:41 10° SSE daylight
26 Apr - 19:48:11 10° SSE 19:50:23 13° SE 19:52:36 10° ESE night (unlit)
26 Apr - 21:26:13 10° SW 21:30:59 52° NW 21:35:35 10° NNE night (unlit)
27 Apr - 07:51:22 10° NNE 07:52:52 12° NE 07:54:22 10° ENE daylight
27 Apr - 09:29:50 10° WNW 09:33:09 29° SW 09:36:36 10° S daylight
27 Apr - 19:51:50 10° S 19:55:51 25° SE 19:59:48 10° ENE visible
27 Apr - 21:32:17 10° WSW 21:36:20 26° NW 21:40:16 10° N night (unlit)
28 Apr - 07:55:05 10° N 07:58:15 26° NE 08:01:29 10° ESE daylight
28 Apr - 09:36:39 10° W 09:38:36 14° SW 09:40:36 10° SSW daylight
28 Apr - 19:56:29 10° SSW 20:01:16 49° SE 20:05:55 10° NE visible
28 Apr - 21:39:26 10° W 21:41:44 13° NW 21:44:00 10° NNW night (unlit)
29 Apr - 07:59:55 10° NNW 08:03:36 64° NE 08:07:24 10° SE daylight
29 Apr - 20:01:41 10° SW 20:06:38 82° NW 20:11:27 10° NE visible
30 Apr - 08:05:21 10° NW 08:08:58 49° SW 08:12:42 10° SSE daylight
30 Apr - 18:28:19 10° SSE 18:31:28 17° SE 18:34:35 10° E visible
30 Apr - 20:07:23 10° WSW 20:12:00 40° NW 20:16:30 10° NNE visible
01 May - 06:31:42 10° NNE 06:34:04 16° NE 06:36:27 10° E daylight
01 May - 08:11:28 10° WNW 08:14:22 21° SW 08:17:20 10° S daylight
01 May - 18:32:29 10° S 18:36:53 32° SE 18:41:14 10° ENE visible
01 May - 20:13:44 10° W 20:17:22 21° NW 20:20:57 10° N visible
02 May - 06:36:00 10° NNW 06:39:27 36° NE 06:42:56 10° ESE daylight
02 May - 18:37:22 10° SSW 18:42:15 65° SE 18:47:05 10° NE visible
02 May - 20:22:09 10° WNW 20:22:47 10° NW 20:23:25 10° NW visible
03 May - 06:41:04 10° NW 06:44:48 89° WSW 06:48:35 10° SE daylight
03 May - 17:05:50 10° SE 17:07:03 11° SE 17:08:16 10° ESE daylight
03 May - 18:42:45 10° SW 18:47:37 63° NW 18:52:27 10° NNE visible
04 May - 06:46:44 10° WNW 06:50:10 35° SW 06:53:38 10° SSE daylight
04 May - 17:08:47 10° S 17:12:30 21° SE 17:16:13 10° ENE daylight
04 May - 18:48:39 10° WSW 18:52:59 31° NW 18:57:17 10° N visible
05 May - 05:12:18 10° N 05:15:15 22° NE 05:18:11 10° ESE visible
05 May - 06:53:15 10° W 06:55:34 16° SW 06:57:54 10° SSW daylight
05 May - 17:13:16 10° SSW 17:17:52 41° SE 17:22:30 10° ENE daylight
05 May - 18:55:21 10° W 18:58:23 16° NW 19:01:24 10° NNW visible
